[[{"header":{"parameterUnit":"m.s-1","parameterCategory":1,"la1":30.2991,"la2":30.254,"lo1":-89.0895,"lo2":-89.0444,"dy":0.0017,"dx":0.0017,"nx":28,"ny":28,"refTime":"2025-04-10T09:00:00:Z","depth":0,"parameterNumber":2,"parameterNumberName":"U-component_of_WINDS"},"data":[0,0,0,0,0,0,0,0,0,0,0,0,0,0,0,0,0,0,0,0,0,0,0,0,0,0,0,0,0,0,0,0,0,0,0,0,0,0,0,0,0,0,0,0,0,0,0,0,0,0,0,0,0,0,0,0,0,0,0.7023,0.7023,0,0.7014,0.7014,0.7014,0.6939,0.6937,0.6935,0.6933,0.6926,0.6928,0.6929,0,0,0,0,0,0,0,0,0,0,0,0,0,0.6976,0.6977,0.7023,0.7023,0.7023,0.7014,0.7014,0.7014,0.6939,0.6937,0.6934,0.6932,0.6926,0.6927,0.6929,0,0,0,0,0,0,0,0,0,0,0,0,0,0.6985,0.6978,0.7023,0.6984,0.698,0.7014,0.7014,0.7014,0.694,0.6937,0.6934,0.6931,0.6925,0.6927,0.693,0.7001,0,0,0.6937,0.6938,0,0,0,0,0,0,0,0,0.6985,0.6987,0.699,0.6987,0.6983,0.6975,0.6995,0.701,0.694,0.6955,0.6933,0.693,0.6945,0.6945,0.695,0.7,0.7,0.6937,0.6938,0.6939,0.694,0,0,0,0,0,0,0,0.6984,0.6987,0.7019,0.699,0.6986,0.6968,0.6966,0.6998,0.6966,0.6954,0.6948,0.6948,0.6942,0.6948,0.6949,0.7,0.6937,0.6939,0.694,0.6941,0.7111,0.7114,0,0,0,0,0,0,0.6989,0.6987,0.702,0.7019,0.6977,0.6971,0.6969,0.698,0.6965,0.696,0.695,0.6945,0.6945,0.6947,0.6949,0.7033,0.6939,0.6942,0.6943,0.7108,0.7112,0.7115,0,0,0,0,0,0,0.6988,0.6992,0.702,0.7002,0.7004,0.6975,0.6988,0.6982,0.6987,0.6963,0.6957,0.6962,0.6943,0.6945,0.6989,0.7032,0.6943,0.6945,0.7105,0.7109,0.7114,0.7202,0,0,0,0,0,0,0.6987,0.6992,0.7018,0.7003,0.7005,0.706,0.6991,0.6983,0.6991,0.6983,0.6972,0.6968,0.6941,0.6986,0.6991,0.7034,0.6947,0.7101,0.7107,0.7112,0.7195,0.7209,0.7221,0,0,0,0,0,0.6985,0.7043,0.702,0.7025,0.7037,0.7063,0.7064,0.7032,0.6995,0.7022,0.7006,0.6968,0.7026,0.6991,0.6996,0.704,0.7098,0.7105,0.7112,0.7189,0.7206,0.7221,0,0,0,0,0,0,0.7065,0.704,0.7015,0.7069,0.7068,0.705,0.7082,0.705,0.7061,0.7053,0.7013,0.7011,0.7062,0.7054,0.7016,0.711,0.7055,0.7064,0.7113,0.7129,0.7141,0.7143,0.6949,0,0,0,0,0,0.7089,0.7111,0.7088,0.7139,0.714,0.7111,0.7121,0.7097,0.7095,0.7094,0.7082,0.7082,0.7101,0.7114,0.7129,0.7193,0.7191,0.7226,0.7239,0.725,0.7258,0.7295,0.7311,0.7138,0.7138,0.7138,0,0,0.7138,0.7128,0.7144,0.7154,0.7151,0.7177,0.7112,0.714,0.716,0.7099,0.714,0.7131,0.7129,0.7184,0.7207,0.718,0.7305,0.7259,0.7267,0.727,0.7304,0.732,0.7335,0.7143,0.7142,0.7141,0,0,0.7242,0.7235,0.7278,0.7276,0.7272,0.7253,0.7263,0.725,0.7242,0.7282,0.7238,0.726,0.7292,0.7293,0.7298,0.7404,0.737,0.741,0.7479,0.7515,0.7528,0.754,0.7581,0.7596,0.7418,0.7418,0.7419,0,0.7305,0.734,0.7303,0.7336,0.7343,0.7289,0.7333,0.7333,0.7335,0.7342,0.731,0.7351,0.7345,0.7401,0.7427,0.7432,0.7444,0.7412,0.7529,0.7541,0.7552,0.759,0.7605,0.7423,0.7423,0.7422,0.7422,0,0.7419,0.7444,0.7479,0.7483,0.7493,0.7532,0.7502,0.7517,0.7492,0.7477,0.752,0.7511,0.7526,0.7536,0.7511,0.759,0.7573,0.7536,0.7481,0.7574,0.761,0.7624,0.7431,0.7429,0.7427,0.7426,0,0,0.7573,0.7557,0.757,0.7573,0.7565,0.7585,0.7621,0.7635,0.765,0.7653,0.7684,0.7713,0.768,0.7685,0.766,0.7691,0.778,0.765,0.765,0.7678,0.7869,0.79,0.7917,0.7756,0.7759,0.7761,0.7871,0,0.7676,0.7737,0.7706,0.7771,0.7796,0.7746,0.7778,0.7778,0.7765,0.7785,0.777,0.7792,0.7745,0.7748,0.7777,0.7763,0.7818,0.7754,0.7788,0.7789,0.7793,0.7935,0.7967,0.807,0.7884,0.7886,0.7888,0,0.7803,0.7813,0.7882,0.7872,0.7881,0.791,0.7922,0.7941,0.794,0.7928,0.7936,0.7904,0.794,0.7884,0.7936,0.7893,0.7904,0.79,0.7903,0.7907,0.7846,0.7946,0.8102,0.8119,0.7909,0.7907,0.7906,0,0.7913,0.7943,0.7988,0.7991,0.798,0.8002,0.7999,0.7995,0.8006,0.8016,0.8023,0.8037,0.8046,0.8058,0.8032,0.7993,0.8088,0.8029,0.8082,0.8083,0.8106,0.8105,0.8269,0.8109,0.8108,0.8108,0.8108,0,0.8032,0.8077,0.8038,0.8066,0.8116,0.808,0.813,0.8121,0.8118,0.8145,0.8101,0.8128,0.809,0.8113,0.8092,0.814,0.8143,0.8136,0.8131,0.8142,0.8143,0.8151,0.8144,0.8112,0.8111,0.8111,0.811,0,0.8164,0.8139,0.8186,0.8172,0.817,0.8207,0.8195,0.8222,0.8206,0.8241,0.8247,0.8222,0.8247,0.8221,0.8244,0.8231,0.8296,0.8278,0.8296,0.8293,0.8348,0.8344,0.8525,0.8548,0.837,0.8372,0.8373,0,0.8244,0.8277,0.8267,0.8282,0.8281,0.8305,0.8317,0.8283,0.8297,0.83,0.8327,0.8348,0.8364,0.8406,0.8391,0.8409,0.8394,0.8456,0.8396,0.8407,0.8399,0.8398,0.8403,0.8469,0.8471,0.8473,0.8474,0,0.8388,0.8374,0.8392,0.8407,0.8422,0.8432,0.8438,0.8453,0.8418,0.8437,0.8462,0.8474,0.8498,0.8521,0.8535,0.8532,0.8499,0.8493,0.8506,0.852,0.853,0.8529,0.8333,0.8489,0.8488,0.8486,0.8486,0.8485,0.8498,0.8527,0.8525,0.8547,0.8548,0.8556,0.8581,0.8569,0.8589,0.8607,0.8585,0.8617,0.8617,0.8633,0.8634,0.866,0.8633,0.8652,0.8658,0.8664,0.8674,0.8524,0.8661,0.8661,0.8661,0.866,0.866,0,0.8643,0.8639,0.866,0.8671,0.869,0.8655,0.8661,0.8679,0.8708,0.8711,0.8727,0.8758,0.878,0.8767,0.8787,0.881,0.8795,0.8816,0.8816,0.8817,0.8694,0.8682,0.8828,0.8828,0.8828,0.8828,0.8828,0.8828,0.8721,0.8769,0.8755,0.8804,0.88,0.8831,0.8838,0.8845,0.8848,0.8884,0.8903,0.8894,0.8891,0.891,0.893,0.8925,0.8936,0.8964,0.8955,0.8841,0.8825,0.8809,0.8797,0.8966,0.8966,0.9075,0.9076,0.9077]},{"header":{"parameterUnit":"m.s-1","parameterCategory":1,"la1":30.2991,"la2":30.254,"lo1":-89.0895,"lo2":-89.0444,"dy":0.0017,"dx":0.0017,"nx":28,"ny":28,"refTime":"2025-04-10T09:00:00:Z","depth":0,"parameterNumber":3,"parameterNumberName":"V-component_of_WINDS"},"data":[0,0,0,0,0,0,0,0,0,0,0,0,0,0,0,0,0,0,0,0,0,0,0,0,0,0,0,0,0,0,0,0,0,0,0,0,0,0,0,0,0,0,0,0,0,0,0,0,0,0,0,0,0,0,0,0,0,0,-4.9812,-4.9812,0,-4.9816,-4.9816,-4.9816,-4.9783,-4.9782,-4.9781,-4.978,-4.9781,-4.9781,-4.9782,0,0,0,0,0,0,0,0,0,0,0,0,0,-4.9773,-4.9774,-4.9812,-4.9812,-4.9812,-4.9816,-4.9816,-4.9816,-4.9783,-4.9782,-4.978,-4.9779,-4.978,-4.9781,-4.9782,0,0,0,0,0,0,0,0,0,0,0,0,0,-4.9785,-4.9775,-4.9812,-4.9796,-4.9795,-4.9816,-4.9816,-4.9816,-4.9783,-4.9782,-4.978,-4.9779,-4.978,-4.9781,-4.9783,-4.9819,0,0,-4.9787,-4.9787,0,0,0,0,0,0,0,0,-4.9784,-4.9786,-4.9798,-4.9797,-4.9796,-4.9798,-4.9803,-4.9817,-4.9783,-4.9787,-4.978,-4.9778,-4.9787,-4.9788,-4.9791,-4.9819,-4.9819,-4.9787,-4.9788,-4.9788,-4.9788,0,0,0,0,0,0,0,-4.9784,-4.9786,-4.9814,-4.9798,-4.9797,-4.9788,-4.9788,-4.9805,-4.9795,-4.9787,-4.9784,-4.9786,-4.9786,-4.979,-4.9791,-4.9819,-4.9787,-4.9788,-4.9789,-4.9789,-4.9879,-4.988,0,0,0,0,0,0,-4.9785,-4.9786,-4.9813,-4.9814,-4.9787,-4.979,-4.979,-4.9798,-4.9795,-4.9793,-4.9787,-4.9784,-4.9789,-4.979,-4.9791,-4.9835,-4.9788,-4.9789,-4.979,-4.9877,-4.9879,-4.9881,0,0,0,0,0,0,-4.9785,-4.9788,-4.9813,-4.9799,-4.9802,-4.9792,-4.9802,-4.9799,-4.9803,-4.9795,-4.9792,-4.9793,-4.9788,-4.9789,-4.9813,-4.9834,-4.979,-4.9791,-4.9875,-4.9878,-4.988,-4.9922,0,0,0,0,0,0,-4.9784,-4.9788,-4.9802,-4.98,-4.9803,-4.9835,-4.9803,-4.98,-4.9806,-4.9802,-4.98,-4.9798,-4.9787,-4.9811,-4.9814,-4.9835,-4.9792,-4.9873,-4.9876,-4.9879,-4.9918,-4.9925,-4.9931,0,0,0,0,0,-4.9782,-4.9812,-4.9803,-4.9806,-4.982,-4.9837,-4.9838,-4.9825,-4.9808,-4.9822,-4.9817,-4.9798,-4.9832,-4.9814,-4.9817,-4.9839,-4.9872,-4.9875,-4.9879,-4.9916,-4.9924,-4.9931,0,0,0,0,0,0,-4.9815,-4.9811,-4.9801,-4.9831,-4.9835,-4.9831,-4.9848,-4.9834,-4.9842,-4.9838,-4.9821,-4.9821,-4.9848,-4.9845,-4.9826,-4.9875,-4.9849,-4.9853,-4.9875,-4.9883,-4.989,-4.9889,-4.9793,0,0,0,0,0,-4.9826,-4.9841,-4.9837,-4.9863,-4.9866,-4.9857,-4.9864,-4.9854,-4.9857,-4.9858,-4.9854,-4.9857,-4.9868,-4.9875,-4.9885,-4.9918,-4.9918,-4.9935,-4.9942,-4.9947,-4.9951,-4.997,-4.9978,-4.9892,-4.9892,-4.9892,0,0,-4.9847,-4.9848,-4.9858,-4.987,-4.9872,-4.9888,-4.9858,-4.9875,-4.9887,-4.986,-4.9883,-4.9881,-4.9882,-4.9912,-4.9924,-4.9911,-4.9975,-4.9951,-4.9956,-4.9957,-4.9975,-4.9983,-4.999,-4.9895,-4.9894,-4.9894,0,0,-4.9896,-4.9897,-4.9921,-4.9924,-4.9928,-4.9923,-4.9929,-4.9928,-4.9926,-4.9949,-4.993,-4.9943,-4.9962,-4.9965,-4.9969,-5.0023,-5.0007,-5.0026,-5.0059,-5.0079,-5.0085,-5.0091,-5.0112,-5.0119,-5.003,-5.003,-5.0031,0,-4.9922,-4.9946,-4.9934,-4.9954,-4.9961,-4.9939,-4.9964,-4.9967,-4.9973,-4.9978,-4.9963,-4.9989,-4.9989,-5.0019,-5.0033,-5.0036,-5.0043,-5.0026,-5.0086,-5.0091,-5.0097,-5.0116,-5.0123,-5.0033,-5.0033,-5.0032,-5.0032,0,-4.9979,-4.9996,-5.0015,-5.0025,-5.0033,-5.0055,-5.0046,-5.0057,-5.0047,-5.0043,-5.0068,-5.0067,-5.0078,-5.0084,-5.0074,-5.0114,-5.0106,-5.0089,-5.0062,-5.0108,-5.0125,-5.0132,-5.0036,-5.0036,-5.0035,-5.0034,0,0,-5.0045,-5.0051,-5.0058,-5.0064,-5.0068,-5.0081,-5.0102,-5.0114,-5.0124,-5.013,-5.0148,-5.0167,-5.0152,-5.0156,-5.0146,-5.0163,-5.0208,-5.0144,-5.0144,-5.0157,-5.0254,-5.0267,-5.0276,-5.0198,-5.0199,-5.02,-5.0254,0,-5.0094,-5.0132,-5.0124,-5.0161,-5.0178,-5.0159,-5.0178,-5.0183,-5.0181,-5.0194,-5.0191,-5.0205,-5.0183,-5.0187,-5.0202,-5.0199,-5.0227,-5.0195,-5.0214,-5.0215,-5.0215,-5.0285,-5.0298,-5.035,-5.0261,-5.0262,-5.0263,0,-5.0154,-5.0166,-5.0206,-5.0211,-5.0217,-5.0235,-5.0247,-5.026,-5.0265,-5.0262,-5.027,-5.0257,-5.0279,-5.0253,-5.0282,-5.0261,-5.0268,-5.0268,-5.027,-5.0271,-5.0242,-5.0289,-5.0365,-5.0373,-5.0273,-5.0273,-5.0272,0,-5.02,-5.0225,-5.0253,-5.0258,-5.0264,-5.0277,-5.028,-5.0285,-5.0293,-5.0304,-5.0309,-5.0321,-5.0328,-5.0337,-5.0329,-5.031,-5.0361,-5.0333,-5.0359,-5.0359,-5.037,-5.0369,-5.0449,-5.0374,-5.0374,-5.0374,-5.0374,0,-5.0255,-5.028,-5.0275,-5.0292,-5.032,-5.0311,-5.0339,-5.0339,-5.0344,-5.0361,-5.0345,-5.0361,-5.0349,-5.0364,-5.0357,-5.0384,-5.0387,-5.0385,-5.0383,-5.0387,-5.0387,-5.0391,-5.0388,-5.0376,-5.0375,-5.0375,-5.0375,0,-5.0311,-5.0308,-5.0337,-5.0342,-5.0344,-5.0365,-5.0368,-5.0384,-5.0382,-5.0404,-5.0408,-5.0404,-5.0421,-5.0414,-5.0431,-5.0427,-5.0462,-5.0455,-5.0461,-5.0459,-5.0486,-5.0484,-5.0571,-5.0583,-5.05,-5.0501,-5.0501,0,-5.0346,-5.0365,-5.0374,-5.0385,-5.039,-5.0408,-5.0418,-5.041,-5.0421,-5.0431,-5.0446,-5.0462,-5.0475,-5.0503,-5.0501,-5.0515,-5.0508,-5.0538,-5.051,-5.0514,-5.051,-5.0509,-5.0512,-5.0544,-5.0545,-5.0546,-5.0546,0,-5.0409,-5.0408,-5.0423,-5.044,-5.0453,-5.0465,-5.0475,-5.0485,-5.0478,-5.0491,-5.0509,-5.052,-5.0539,-5.0556,-5.0569,-5.0571,-5.0558,-5.0556,-5.0562,-5.0566,-5.0569,-5.0569,-5.0477,-5.0553,-5.0552,-5.0552,-5.0552,-5.0551,-5.0456,-5.0474,-5.0483,-5.0502,-5.051,-5.0521,-5.0537,-5.0538,-5.0554,-5.0571,-5.0565,-5.0587,-5.0595,-5.0611,-5.0616,-5.0632,-5.062,-5.063,-5.0633,-5.0635,-5.064,-5.0567,-5.0634,-5.0634,-5.0634,-5.0634,-5.0634,0,-5.0519,-5.0526,-5.0543,-5.056,-5.0575,-5.0564,-5.0576,-5.0589,-5.0609,-5.0618,-5.0632,-5.0655,-5.0671,-5.0672,-5.0688,-5.0702,-5.0696,-5.0706,-5.0705,-5.0706,-5.0648,-5.0641,-5.071,-5.071,-5.071,-5.071,-5.071,-5.071,-5.0554,-5.0584,-5.0585,-5.0619,-5.0625,-5.0648,-5.0656,-5.0666,-5.0673,-5.07,-5.0715,-5.0717,-5.0722,-5.0739,-5.0755,-5.0754,-5.0761,-5.0774,-5.0771,-5.0717,-5.071,-5.0702,-5.0696,-5.0775,-5.0775,-5.0827,-5.0828,-5.0828]}]]